Weather History for KMRN - October, 2013

Change the Weather History Date:

Sunday, October 27, 2013

  Actual Average (KHKY) Record (KHKY)
Temperature  
Mean Temperature 52 °F -  
Max Temperature 69 °F 67 °F 83 °F (1963)
Min Temperature 34 °F 44 °F 24 °F (1962)
Degree Days  
Heating Degree Days 14    
Growing Degree Days 2 (Base 50)    
Moisture  
Dew Point 42 °F    
Average Humidity 72    
Maximum Humidity 100    
Minimum Humidity 36    
Precipitation  
Precipitation 0.00 in - - ()
Sea Level Pressure  
Sea Level Pressure 30.13 in    
Wind  
Wind Speed 2 mph (SSW)    
Max Wind Speed 10 mph    
Max Gust Speed -    
Visibility 10 miles    
Events      
Averages and records for this station are not official NWS values.
T = Trace of Precipitation, MM = Missing Value Source: NWS Daily Summary

Daily Weather History Graph

Daily Weather History Graph

Search for Another Location

Airport or City:

Trip Planner

Search our weather history database for the weather conditions in past years. The results will help you decide how hot, cold, wet, or windy it might be!

Date:

Astronomy

Oct. 27, 2013 Rise Set
Actual Time 7:44 AM EDT 6:35 PM EDT
Civil Twilight 7:17 AM EDT 7:02 PM EDT
Nautical Twilight 6:47 AM EDT 7:32 PM EDT
Astronomical Twilight 6:18 AM EDT 8:01 PM EDT
Moon 12:53 AM EDT (10/27) 2:32 PM EDT (10/27)
Length of Visible Light 11h 44m
Length of Day
10h 51m
Last Quarter, 44% of the Moon is Illuminated
Oct 27
Last Quarter
Nov 3
New
Nov 10
First Quarter
Nov 17
Full
Nov 25
Last Quarter

Hourly Weather History & Observations

Time (EDT) Temp. Windchill Dew Point Humidity Pressure Visibility Wind Dir Wind Speed Gust Speed Precip Events Conditions
12:15 AM 47.5 °F - 37.8 °F 69% 30.12 in 10.0 mi North 3.5 mph - N/A   Overcast
12:35 AM 46.6 °F - 38.3 °F 73% 30.12 in 10.0 mi NNE 3.5 mph - N/A   Mostly Cloudy
12:55 AM 46.8 °F - 37.8 °F 71% 30.12 in 10.0 mi Calm Calm - N/A   Mostly Cloudy
1:15 AM 46.4 °F - 38.5 °F 74% 30.12 in 10.0 mi Calm Calm - N/A   Scattered Clouds
1:35 AM 45.5 °F - 39.4 °F 79% 30.12 in 10.0 mi Calm Calm - N/A   Scattered Clouds
1:55 AM 44.8 °F - 40.5 °F 85% 30.12 in 10.0 mi Calm Calm - N/A   Mostly Cloudy
2:15 AM 44.6 °F - 40.8 °F 87% 30.12 in 10.0 mi Calm Calm - N/A   Overcast
2:35 AM 43.5 °F - 40.1 °F 88% 30.12 in 10.0 mi Calm Calm - N/A   Mostly Cloudy
2:55 AM 42.8 °F - 39.7 °F 89% 30.12 in 10.0 mi Calm Calm - N/A   Scattered Clouds
3:15 AM 41.4 °F - 38.8 °F 91% 30.12 in 10.0 mi Calm Calm - N/A   Clear
3:35 AM 41.4 °F - 38.7 °F 90% 30.12 in 10.0 mi Calm Calm - N/A   Clear
3:55 AM 40.8 °F - 37.9 °F 89% 30.10 in 10.0 mi Calm Calm - N/A   Clear
4:15 AM 38.8 °F - 36.7 °F 92% 30.10 in 10.0 mi Calm Calm - N/A   Clear
4:35 AM 38.3 °F - 37.2 °F 96% 30.10 in 10.0 mi Calm Calm - N/A   Clear
4:55 AM 40.3 °F - 38.5 °F 93% 30.10 in 10.0 mi Calm Calm - N/A   Clear
5:15 AM 38.8 °F - 37.0 °F 93% 30.10 in 10.0 mi Calm Calm - N/A   Clear
5:35 AM 36.9 °F 33.1 °F 35.8 °F 96% 30.11 in 10.0 mi NNW 4.6 mph - N/A   Clear
5:55 AM 36.1 °F - 35.2 °F 97% 30.10 in 10.0 mi Calm Calm - N/A   Clear
6:15 AM 36.1 °F - 35.4 °F 97% 30.11 in 10.0 mi Calm Calm - N/A   Clear
6:35 AM 38.5 °F - 38.3 °F 99% 30.12 in 10.0 mi Calm Calm - N/A   Clear
6:55 AM 37.9 °F - 37.4 °F 98% 30.12 in 10.0 mi Calm Calm - N/A   Clear
7:15 AM 36.5 °F - 35.8 °F 97% 30.12 in 10.0 mi Calm Calm - N/A   Clear
7:35 AM 34.7 °F - 34.2 °F 98% 30.12 in 7.0 mi Calm Calm - N/A   Clear
7:55 AM 34.9 °F - 34.5 °F 99% 30.13 in 7.0 mi Calm Calm - N/A   Clear
8:15 AM 34.9 °F - 34.9 °F 100% 30.14 in 5.0 mi Calm Calm - N/A   Clear
8:35 AM 37.9 °F - 37.9 °F 100% 30.15 in 7.0 mi Calm Calm - N/A   Clear
8:55 AM 42.4 °F - 41.9 °F 98% 30.15 in 10.0 mi Calm Calm - N/A   Clear
9:15 AM 45.5 °F - 41.4 °F 85% 30.16 in 10.0 mi Calm Calm - N/A   Clear
9:35 AM 50.0 °F - 41.4 °F 72% 30.16 in 10.0 mi Calm Calm - N/A   Clear
9:55 AM 53.1 °F - 41.2 °F 64% 30.16 in 10.0 mi Calm Calm - N/A   Clear
10:15 AM 54.9 °F - 40.5 °F 58% 30.17 in 10.0 mi South 3.5 mph - N/A   Clear
10:35 AM 55.6 °F - 40.5 °F 57% 30.16 in 10.0 mi SSW 3.5 mph - N/A   Clear
10:55 AM 57.4 °F - 40.5 °F 53% 30.17 in 10.0 mi Calm Calm - N/A   Clear
11:15 AM 58.6 °F - 39.9 °F 50% 30.16 in 10.0 mi Calm Calm - N/A   Clear
11:35 AM 60.4 °F - 41.0 °F 49% 30.16 in 10.0 mi Calm Calm - N/A   Clear
11:55 AM 61.0 °F - 40.8 °F 47% 30.17 in 10.0 mi SW 3.5 mph - N/A   Clear
12:15 PM 62.4 °F - 41.5 °F 46% 30.17 in 10.0 mi South 3.5 mph - N/A   Clear
12:35 PM 64.0 °F - 41.2 °F 43% 30.16 in 10.0 mi SSE 4.6 mph - N/A   Clear
12:55 PM 64.8 °F - 40.8 °F 42% 30.15 in 10.0 mi SSW 5.8 mph - N/A   Clear
1:15 PM 65.8 °F - 41.2 °F 41% 30.14 in 10.0 mi South 5.8 mph - N/A   Clear
1:35 PM 65.7 °F - 40.5 °F 40% 30.13 in 10.0 mi Calm Calm - N/A   Clear
1:55 PM 67.5 °F - 41.0 °F 38% 30.12 in 10.0 mi South 8.1 mph - N/A   Clear
2:15 PM 67.8 °F - 40.8 °F 37% 30.10 in 10.0 mi SSW 10.4 mph - N/A   Clear
2:35 PM 67.8 °F - 40.8 °F 37% 30.10 in 10.0 mi SSW 8.1 mph - N/A   Clear
2:55 PM 68.4 °F - 41.2 °F 37% 30.09 in 10.0 mi South 9.2 mph - N/A   Clear
3:15 PM 69.1 °F - 41.7 °F 37% 30.09 in 10.0 mi South 8.1 mph - N/A   Clear
3:35 PM 68.7 °F - 41.0 °F 36% 30.08 in 10.0 mi South 6.9 mph - N/A   Clear
3:55 PM 69.4 °F - 41.2 °F 36% 30.08 in 10.0 mi SW 8.1 mph - N/A   Clear
4:15 PM 69.3 °F - 42.4 °F 38% 30.08 in 10.0 mi SSW 4.6 mph - N/A   Clear
4:35 PM 69.1 °F - 42.8 °F 39% 30.08 in 10.0 mi South 8.1 mph - N/A   Clear
4:55 PM 69.3 °F - 43.9 °F 40% 30.08 in 10.0 mi SSW 8.1 mph - N/A   Clear
5:15 PM 68.9 °F - 44.6 °F 42% 30.08 in 10.0 mi SSW 8.1 mph - N/A   Clear
5:35 PM 68.2 °F - 45.3 °F 44% 30.08 in 10.0 mi SSW 5.8 mph - N/A   Clear
5:55 PM 67.3 °F - 46.0 °F 46% 30.08 in 10.0 mi SSW 3.5 mph - N/A   Scattered Clouds
6:15 PM 66.0 °F - 46.4 °F 49% 30.09 in 10.0 mi SSW 4.6 mph - N/A   Mostly Cloudy
6:35 PM 62.4 °F - 47.3 °F 58% 30.10 in 10.0 mi Calm Calm - N/A   Scattered Clouds
6:55 PM 60.3 °F - 47.5 °F 63% 30.11 in 10.0 mi Calm Calm - N/A   Clear
7:15 PM 55.6 °F - 48.7 °F 78% 30.12 in 10.0 mi SSW 3.5 mph - N/A   Scattered Clouds
7:35 PM 54.9 °F - 49.1 °F 81% 30.12 in 10.0 mi Calm Calm - N/A   Overcast
7:55 PM 54.5 °F - 49.6 °F 84% 30.12 in 10.0 mi Calm Calm - N/A   Overcast
8:15 PM 53.2 °F - 48.9 °F 85% 30.13 in 10.0 mi Calm Calm - N/A   Scattered Clouds
8:35 PM 51.3 °F - 48.6 °F 90% 30.13 in 10.0 mi Calm Calm - N/A   Scattered Clouds
8:55 PM 50.2 °F - 48.0 °F 92% 30.14 in 10.0 mi Calm Calm - N/A   Clear
9:15 PM 50.2 °F - 47.5 °F 90% 30.14 in 10.0 mi Calm Calm - N/A   Mostly Cloudy
9:35 PM 50.2 °F - 47.3 °F 90% 30.14 in 10.0 mi Calm Calm - N/A   Mostly Cloudy
9:55 PM 49.5 °F - 47.5 °F 93% 30.15 in 10.0 mi Calm Calm - N/A   Mostly Cloudy
10:15 PM 49.8 °F - 47.3 °F 91% 30.15 in 10.0 mi Calm Calm - N/A   Mostly Cloudy
10:35 PM 48.6 °F - 47.1 °F 95% 30.16 in 10.0 mi Calm Calm - N/A   Scattered Clouds
10:55 PM 47.3 °F - 46.4 °F 97% 30.16 in 10.0 mi ENE 3.5 mph - N/A   Clear
11:15 PM 48.0 °F - 46.6 °F 95% 30.17 in 10.0 mi Calm Calm - N/A   Clear
11:35 PM 46.4 °F - 45.3 °F 96% 30.16 in 10.0 mi Calm Calm - N/A   Scattered Clouds
11:55 PM 46.8 °F - 45.9 °F 97% 30.17 in 10.0 mi Calm Calm - N/A   Scattered Clouds